This is the latest recevied weather packets stored in our database for station/object KD7ECD. If no packets are shown the sender has not sent any weather packets the latest 1 day(s).
| Time | Temp. | Humidity | Pressure | Rain* | Wind** | Luminosity | Snow |
|---|---|---|---|---|---|---|---|
| 1777985406 | 10.56° C | 93% | 1017 hPa | 0 mm | 1.79 m/s, 206° | 0 W/m² | - |
| 1777984805 | 10.56° C | 94% | 1017 hPa | 0 mm | 1.34 m/s, 204° | 0 W/m² | - |
| 1777984204 | 10.56° C | 94% | 1016.7 hPa | 0 mm | 2.24 m/s, 191° | 0 W/m² | - |
| 1777983598 | 10.56° C | 95% | 1016.7 hPa | 0 mm | 1.79 m/s, 200° | 0 W/m² | - |
| 1777982996 | 10.56° C | 95% | 1016.8 hPa | 0 mm | 0.89 m/s, 196° | 0 W/m² | - |
| 1777982392 | 10.56° C | 95% | 1017 hPa | 0 mm | 2.24 m/s, 196° | 0 W/m² | - |
| 1777981787 | 10.56° C | 95% | 1017 hPa | 0 mm | 1.79 m/s, 189° | 0 W/m² | - |
| 1777981185 | 10.56° C | 95% | 1017.1 hPa | 0 mm | 1.79 m/s, 174° | 0 W/m² | - |
| 1777980583 | 10° C | 95% | 1017.2 hPa | 0 mm | 2.24 m/s, 197° | 0 W/m² | - |
| 1777979984 | 10° C | 95% | 1017.1 hPa | 0 mm | 2.24 m/s, 217° | 0 W/m² | - |
| 1777979380 | 10° C | 95% | 1017.1 hPa | 0 mm | 1.79 m/s, 205° | 0 W/m² | - |
| 1777978780 | 10° C | 95% | 1016.9 hPa | 0 mm | 2.24 m/s, 214° | 0 W/m² | - |
| 1777978178 | 10° C | 95% | 1017 hPa | 0 mm | 1.79 m/s, 214° | 0 W/m² | - |
| 1777977578 | 10° C | 95% | 1016.9 hPa | 0 mm | 2.24 m/s, 202° | 0 W/m² | - |
| 1777976978 | 10° C | 95% | 1017 hPa | 0 mm | 1.79 m/s, 208° | 0 W/m² | - |
| 1777976379 | 10° C | 95% | 1017 hPa | 0 mm | 2.24 m/s, 219° | 0 W/m² | - |
| 1777975774 | 10.56° C | 94% | 1017 hPa | 0 mm | 4.47 m/s, 210° | 0 W/m² | - |
| 1777975173 | 10.56° C | 94% | 1017.1 hPa | 0 mm | 2.68 m/s, 217° | 0 W/m² | - |
| 1777974572 | 10.56° C | 94% | 1017 hPa | 0 mm | 1.79 m/s, 242° | 0 W/m² | - |
| 1777973971 | 10.56° C | 93% | 1017.2 hPa | 0 mm | 0 m/s | 0 W/m² | - |
| 1777973365 | 10.56° C | 93% | 1017.4 hPa | 0 mm | 0 m/s | 0 W/m² | - |
* Rain latest hour (hover to see other rain measurements)
** Current wind speed in m/s (hover to see current wind gust speed)